| time (UTC) | temp F | wind direction | speed MPH | gust MPH | rain 1hr in | rain 24hr in | rain mn in | humidity % | barometer mb |
| 20260505171118 | 82 | 286 | 3.0 | 8.0 | 0.00 | 0.00 | 0.00 | 33 | 1008.4 |
| 20260505170615 | 81 | 228 | 3.0 | 4.0 | 0.00 | 0.00 | 0.00 | 34 | 1008.5 |
| 20260505170111 | 81 | 218 | 6.0 | 13.0 | 0.00 | 0.00 | 0.00 | 33 | 1008.5 |
| 20260505165606 | 81 | 268 | 4.0 | 11.0 | 0.00 | 0.00 | 0.00 | 34 | 1008.6 |
| 20260505165102 | 81 | 259 | 3.0 | 12.0 | 0.00 | 0.00 | 0.00 | 35 | 1008.8 |
| 20260505164558 | 81 | 276 | 6.0 | 8.0 | 0.00 | 0.00 | 0.00 | 34 | 1008.8 |
| 20260505164056 | 81 | 308 | 1.0 | 6.0 | 0.00 | 0.00 | 0.00 | 36 | 1008.7 |
| 20260505163554 | 80 | 236 | 2.0 | 7.0 | 0.00 | 0.00 | 0.00 | 34 | 1009.1 |
| 20260505163051 | 80 | 251 | 5.0 | 10.0 | 0.00 | 0.00 | 0.00 | 34 | 1009.3 |
| 20260505162549 | 80 | 231 | 12.0 | 13.0 | 0.00 | 0.00 | 0.00 | 35 | 1009.3 |
| 20260505162047 | 80 | 231 | 4.0 | 6.0 | 0.00 | 0.00 | 0.00 | 36 | 1009.1 |
| 20260505161543 | 80 | 241 | 5.0 | 9.0 | 0.00 | 0.00 | 0.00 | 37 | 1009.0 |
| 20260505161041 | 79 | 321 | 3.0 | 9.0 | 0.00 | 0.00 | 0.00 | 37 | 1009.3 |
| 20260505160538 | 79 | 277 | 4.0 | 9.0 | 0.00 | 0.00 | 0.00 | 36 | 1009.3 |
| 20260505153015 | 79 | 297 | 6.0 | 6.0 | 0.00 | 0.00 | 0.00 | 38 | 1009.5 |
| 20260505152512 | 78 | 282 | 4.0 | 5.0 | 0.00 | 0.00 | 0.00 | 38 | 1009.5 |
| 20260505152008 | 78 | 144 | 4.0 | 5.0 | 0.00 | 0.00 | 0.00 | 37 | 1009.7 |
| 20260505151503 | 78 | 269 | 3.0 | 4.0 | 0.00 | 0.00 | 0.00 | 38 | 1009.5 |
| 20260505151000 | 77 | 237 | 2.0 | 5.0 | 0.00 | 0.00 | 0.00 | 39 | 1009.6 |
| 20260505150457 | 77 | 242 | 6.0 | 8.0 | 0.00 | 0.00 | 0.00 | 37 | 1009.6 |
| 20260505140427 | 73 | 230 | 5.0 | 6.0 | 0.00 | 0.00 | 0.00 | 43 | 1010.3 |
| 20260505124840 | 68 | 57 | 2.0 | 3.0 | 0.00 | 0.00 | 0.00 | 56 | 1010.6 |
| 20260505124337 | 68 | 65 | 2.0 | 3.0 | 0.00 | 0.00 | 0.00 | 56 | 1010.7 |
| 20260505123833 | 68 | 202 | 0.0 | 3.0 | 0.00 | 0.00 | 0.00 | 54 | 1010.5 |
| 20260505123330 | 67 | 50 | 2.0 | 2.0 | 0.00 | 0.00 | 0.00 | 58 | 1010.6 |
| 20260505122826 | 66 | 43 | 0.0 | 2.0 | 0.00 | 0.00 | 0.00 | 58 | 1010.4 |
| 20260505122324 | 66 | 14 | 2.0 | 2.0 | 0.00 | 0.00 | 0.00 | 60 | 1010.5 |
| 20260505121820 | 65 | 13 | 2.0 | 3.0 | 0.00 | 0.00 | 0.00 | 62 | 1010.5 |
| 20260505121317 | 64 | 17 | 0.0 | 2.0 | 0.00 | 0.00 | 0.00 | 63 | 1010.5 |
| 20260505120813 | 64 | 55 | 3.0 | 3.0 | 0.00 | 0.00 | 0.00 | 65 | 1010.4 |
| 20260505120309 | 63 | 29 | 1.0 | 2.0 | 0.00 | 0.00 | 0.00 | 66 | 1010.4 |
| 20260505115808 | 62 | 341 | 0.0 | 2.0 | 0.00 | 0.00 | 0.00 | 69 | 1010.1 |
| 20260505115306 | 60 | 52 | 2.0 | 3.0 | 0.00 | 0.00 | 0.00 | 73 | 1010.3 |
| 20260505114803 | 58 | 31 | 2.0 | 2.0 | 0.00 | 0.00 | 0.00 | 77 | 1010.4 |
| 20260505114300 | 57 | 273 | 1.0 | 1.0 | 0.00 | 0.00 | 0.00 | 79 | 1010.3 |
| 20260505113756 | 56 | 28 | 0.0 | 2.0 | 0.00 | 0.00 | 0.00 | 80 | 1010.2 |
| 20260505113252 | 55 | 50 | 0.0 | 1.0 | 0.00 | 0.00 | 0.00 | 81 | 1010.1 |
| 20260505112748 | 54 | 44 | 0.0 | 1.0 | 0.00 | 0.00 | 0.00 | 82 | 1010.1 |
| 20260505112246 | 54 | 34 | 1.0 | 2.0 | 0.00 | 0.00 | 0.00 | 84 | 1010.1 |
| 20260505111747 | 53 | 30 | 2.0 | 2.0 | 0.00 | 0.00 | 0.00 | 85 | 1010.2 |
| 20260505111243 | 53 | 44 | 2.0 | 3.0 | 0.00 | 0.00 | 0.00 | 86 | 1010.1 |
| 20260505110739 | 52 | 36 | 2.0 | 2.0 | 0.00 | 0.00 | 0.00 | 86 | 1010.2 |
| 20260505110237 | 51 | 41 | 2.0 | 2.0 | 0.00 | 0.00 | 0.00 | 87 | 1009.9 |
| 20260505102212 | 49 | 61 | 2.0 | 3.0 | 0.00 | 0.00 | 0.00 | 90 | 1010.0 |
| 20260505101711 | 49 | 66 | 2.0 | 2.0 | 0.00 | 0.00 | 0.00 | 89 | 1009.6 |
| 20260505101206 | 50 | 35 | 2.0 | 3.0 | 0.00 | 0.00 | 0.00 | 89 | 1009.8 |
| 20260505100703 | 50 | 48 | 3.0 | 3.0 | 0.00 | 0.00 | 0.00 | 89 | 1009.6 |
| 20260505100200 | 50 | 53 | 2.0 | 3.0 | 0.00 | 0.00 | 0.00 | 88 | 1009.5 |
| 20260505095655 | 51 | 32 | 1.0 | 2.0 | 0.00 | 0.00 | 0.00 | 88 | 1009.6 |
| 20260505095153 | 51 | 44 | 1.0 | 1.0 | 0.00 | 0.00 | 0.00 | 88 | 1009.4 |
| 20260505094649 | 51 | 356 | 1.0 | 2.0 | 0.00 | 0.00 | 0.00 | 88 | 1009.6 |
| 20260505094145 | 52 | 49 | 0.0 | 2.0 | 0.00 | 0.00 | 0.00 | 87 | 1009.6 |
| 20260505093642 | 52 | 26 | 3.0 | 3.0 | 0.00 | 0.00 | 0.00 | 86 | 1009.5 |
| 20260505093139 | 52 | 71 | 0.0 | 2.0 | 0.00 | 0.00 | 0.00 | 86 | 1009.6 |
| 20260505092636 | 52 | 59 | 2.0 | 3.0 | 0.00 | 0.00 | 0.00 | 85 | 1009.7 |
| 20260505092135 | 52 | 58 | 2.0 | 3.0 | 0.00 | 0.00 | 0.00 | 84 | 1009.9 |
| 20260505091631 | 53 | 30 | 2.0 | 3.0 | 0.00 | 0.00 | 0.00 | 84 | 1009.7 |
| 20260505091130 | 53 | 32 | 2.0 | 2.0 | 0.00 | 0.00 | 0.00 | 84 | 1009.8 |
| 20260505090627 | 53 | 38 | 2.0 | 3.0 | 0.00 | 0.00 | 0.00 | 82 | 1009.6 |
| 20260505090125 | 53 | 31 | 2.0 | 3.0 | 0.00 | 0.00 | 0.00 | 81 | 1009.8 |
| 20260505085622 | 53 | 13 | 2.0 | 3.0 | 0.00 | 0.00 | 0.00 | 80 | 1009.7 |
| 20260505085120 | 53 | 31 | 2.0 | 3.0 | 0.00 | 0.00 | 0.00 | 79 | 1009.6 |
| 20260505084618 | 53 | 358 | 2.0 | 2.0 | 0.00 | 0.00 | 0.00 | 79 | 1009.6 |
| 20260505084116 | 53 | 40 | 2.0 | 3.0 | 0.00 | 0.00 | 0.00 | 79 | 1009.4 |
| 20260505083613 | 52 | 25 | 1.0 | 2.0 | 0.00 | 0.00 | 0.00 | 79 | 1009.2 |
| 20260505083109 | 52 | 8 | 1.0 | 2.0 | 0.00 | 0.00 | 0.00 | 80 | 1009.3 |
| 20260505082605 | 52 | 26 | 2.0 | 3.0 | 0.00 | 0.00 | 0.00 | 80 | 1009.3 |
| 20260505082103 | 52 | 13 | 1.0 | 2.0 | 0.00 | 0.00 | 0.00 | 80 | 1009.3 |
| 20260505081559 | 53 | 25 | 2.0 | 2.0 | 0.00 | 0.00 | 0.00 | 79 | 1009.3 |
| 20260505081056 | 53 | 50 | 2.0 | 2.0 | 0.00 | 0.00 | 0.00 | 79 | 1009.2 |
| 20260505080552 | 53 | 27 | 2.0 | 3.0 | 0.00 | 0.00 | 0.00 | 78 | 1009.3 |
| 20260505080049 | 53 | 0 | 0.0 | 2.0 | 0.00 | 0.00 | 0.00 | 78 | 1009.4 |
| 20260505075544 | 53 | 50 | 2.0 | 2.0 | 0.00 | 0.00 | 0.00 | 78 | 1009.2 |
| 20260505075042 | 53 | 36 | 2.0 | 3.0 | 0.00 | 0.00 | 0.00 | 77 | 1009.2 |
| 20260505074538 | 53 | 19 | 2.0 | 2.0 | 0.00 | 0.00 | 0.00 | 77 | 1009.2 |
| 20260505074036 | 53 | 19 | 1.0 | 2.0 | 0.00 | 0.00 | 0.00 | 78 | 1009.5 |
| 20260505073533 | 53 | 26 | 2.0 | 3.0 | 0.00 | 0.00 | 0.00 | 78 | 1009.3 |
| 20260505073032 | 53 | 34 | 2.0 | 2.0 | 0.00 | 0.00 | 0.00 | 78 | 1009.4 |
| 20260505072527 | 53 | 17 | 1.0 | 2.0 | 0.00 | 0.00 | 0.00 | 78 | 1009.4 |
| 20260505072023 | 53 | 33 | 2.0 | 2.0 | 0.00 | 0.00 | 0.00 | 78 | 1009.4 |
| 20260505071519 | 52 | 18 | 0.0 | 2.0 | 0.00 | 0.00 | 0.00 | 78 | 1009.3 |
| 20260505071017 | 52 | 54 | 2.0 | 2.0 | 0.00 | 0.00 | 0.00 | 77 | 1009.3 |
| 20260505070514 | 52 | 20 | 1.0 | 2.0 | 0.00 | 0.00 | 0.00 | 77 | 1009.5 |
| 20260505070010 | 52 | 30 | 2.0 | 2.0 | 0.00 | 0.00 | 0.00 | 77 | 1009.6 |
| 20260505065506 | 52 | 18 | 2.0 | 2.0 | 0.00 | 0.00 | 0.00 | 76 | 1009.4 |
| 20260505065003 | 52 | 47 | 2.0 | 2.0 | 0.00 | 0.00 | 0.00 | 77 | 1009.4 |
| 20260505064500 | 52 | 68 | 2.0 | 3.0 | 0.00 | 0.00 | 0.00 | 77 | 1009.3 |
| 20260505063958 | 52 | 10 | 0.0 | 2.0 | 0.00 | 0.00 | 0.00 | 76 | 1009.7 |
| 20260505063455 | 52 | 41 | 2.0 | 2.0 | 0.00 | 0.00 | 0.00 | 75 | 1009.3 |
| 20260505062951 | 52 | 65 | 2.0 | 2.0 | 0.00 | 0.00 | 0.00 | 75 | 1009.4 |
| 20260505062448 | 52 | 27 | 2.0 | 2.0 | 0.00 | 0.00 | 0.00 | 74 | 1009.5 |
| 20260505061944 | 52 | 42 | 2.0 | 2.0 | 0.00 | 0.00 | 0.00 | 74 | 1009.5 |
| 20260505061443 | 52 | 16 | 1.0 | 2.0 | 0.00 | 0.00 | 0.00 | 74 | 1009.6 |
| 20260505060940 | 52 | 31 | 2.0 | 2.0 | 0.00 | 0.00 | 0.00 | 73 | 1009.6 |
| 20260505060437 | 52 | 25 | 2.0 | 3.0 | 0.00 | 0.00 | 0.00 | 73 | 1009.4 |
| 20260505055933 | 52 | 37 | 2.0 | 2.0 | 0.00 | 0.00 | 0.00 | 73 | 1009.5 |
| 20260505055429 | 52 | 37 | 1.0 | 3.0 | 0.00 | 0.00 | 0.00 | 72 | 1009.5 |
| 20260505054926 | 53 | 19 | 2.0 | 3.0 | 0.00 | 0.00 | 0.00 | 71 | 1009.6 |
| 20260505054424 | 53 | 22 | 2.0 | 3.0 | 0.00 | 0.00 | 0.00 | 69 | 1009.4 |
| 20260505053922 | 54 | 19 | 2.0 | 4.0 | 0.00 | 0.00 | 0.00 | 67 | 1009.4 |
| 20260505053418 | 54 | 38 | 1.0 | 2.0 | 0.00 | 0.00 | 0.00 | 66 | 1009.4 |
| 20260505052915 | 54 | 52 | 2.0 | 2.0 | 0.00 | 0.00 | 0.00 | 65 | 1009.5 |
| 20260505052412 | 54 | 50 | 3.0 | 3.0 | 0.00 | 0.00 | 0.00 | 65 | 1009.4 |
| 20260505051909 | 54 | 32 | 3.0 | 4.0 | 0.00 | 0.00 | 0.00 | 66 | 1009.3 |
| 20260505051407 | 53 | 33 | 2.0 | 3.0 | 0.00 | 0.00 | 0.00 | 67 | 1009.4 |
| 20260505050905 | 53 | 32 | 2.0 | 2.0 | 0.00 | 0.00 | 0.00 | 67 | 1009.4 |
| 20260505050403 | 53 | 52 | 2.0 | 3.0 | 0.00 | 0.00 | 0.00 | 68 | 1009.2 |
| 20260505041330 | 53 | 44 | 2.0 | 2.0 | 0.00 | 0.00 | 0.00 | 68 | 1009.5 |
| 20260505040827 | 53 | 54 | 2.0 | 2.0 | 0.00 | 0.00 | 0.00 | 68 | 1009.3 |
| 20260505040325 | 53 | 28 | 2.0 | 3.0 | 0.00 | 0.00 | 0.00 | 67 | 1009.3 |
| 20260505035821 | 54 | 59 | 1.0 | 2.0 | 0.00 | 0.00 | 0.00 | 67 | 1009.3 |
| 20260505035317 | 54 | 32 | 2.0 | 3.0 | 0.00 | 0.00 | 0.00 | 66 | 1009.3 |
| 20260505034815 | 54 | 36 | 1.0 | 4.0 | 0.00 | 0.00 | 0.00 | 65 | 1009.2 |
| 20260505034311 | 55 | 0 | 1.0 | 2.0 | 0.00 | 0.00 | 0.00 | 66 | 1009.0 |
| 20260505033808 | 55 | 26 | 2.0 | 3.0 | 0.00 | 0.00 | 0.00 | 64 | 1009.1 |
| 20260505033305 | 55 | 36 | 2.0 | 3.0 | 0.00 | 0.00 | 0.00 | 63 | 1009.3 |
| 20260505032804 | 55 | 41 | 2.0 | 2.0 | 0.00 | 0.00 | 0.00 | 62 | 1009.1 |
| 20260505032259 | 55 | 28 | 2.0 | 2.0 | 0.00 | 0.00 | 0.00 | 61 | 1009.2 |
| 20260505031756 | 55 | 59 | 2.0 | 3.0 | 0.00 | 0.00 | 0.00 | 61 | 1009.1 |
| 20260505031252 | 56 | 63 | 2.0 | 2.0 | 0.00 | 0.00 | 0.00 | 61 | 1009.4 |
| 20260505030750 | 56 | 40 | 2.0 | 3.0 | 0.00 | 0.00 | 0.00 | 60 | 1009.4 |
| 20260505030246 | 56 | 23 | 2.0 | 2.0 | 0.00 | 0.00 | 0.00 | 60 | 1009.3 |
| 20260505025742 | 56 | 44 | 2.0 | 3.0 | 0.00 | 0.00 | 0.00 | 60 | 1009.4 |
| 20260505025240 | 56 | 34 | 2.0 | 3.0 | 0.00 | 0.00 | 0.00 | 60 | 1009.4 |
| 20260505024738 | 56 | 26 | 2.0 | 3.0 | 0.00 | 0.00 | 0.00 | 60 | 1009.3 |
| 20260505024235 | 57 | 35 | 2.0 | 3.0 | 0.00 | 0.00 | 0.00 | 59 | 1009.3 |
| 20260505023732 | 57 | 44 | 2.0 | 3.0 | 0.00 | 0.00 | 0.00 | 58 | 1009.4 |
| 20260505023229 | 57 | 29 | 2.0 | 3.0 | 0.00 | 0.00 | 0.00 | 58 | 1009.4 |
| 20260505022727 | 57 | 60 | 2.0 | 3.0 | 0.00 | 0.00 | 0.00 | 58 | 1009.5 |
| 20260505022224 | 57 | 45 | 2.0 | 2.0 | 0.00 | 0.00 | 0.00 | 57 | 1009.3 |
| 20260505021720 | 58 | 60 | 2.0 | 3.0 | 0.00 | 0.00 | 0.00 | 57 | 1009.6 |
| 20260505021217 | 58 | 53 | 2.0 | 3.0 | 0.00 | 0.00 | 0.00 | 56 | 1009.4 |
| 20260505020713 | 59 | 45 | 2.0 | 3.0 | 0.00 | 0.00 | 0.00 | 55 | 1009.7 |
| 20260505020208 | 59 | 43 | 2.0 | 3.0 | 0.00 | 0.00 | 0.00 | 54 | 1009.4 |
| 20260505015706 | 59 | 73 | 2.0 | 2.0 | 0.00 | 0.00 | 0.00 | 54 | 1009.6 |
| 20260505015203 | 59 | 70 | 2.0 | 3.0 | 0.00 | 0.00 | 0.00 | 54 | 1009.5 |
| 20260505014700 | 59 | 64 | 2.0 | 3.0 | 0.00 | 0.00 | 0.00 | 52 | 1009.7 |
| 20260505014157 | 60 | 70 | 1.0 | 2.0 | 0.00 | 0.00 | 0.00 | 52 | 1009.6 |
| 20260505013654 | 60 | 31 | 2.0 | 2.0 | 0.00 | 0.00 | 0.00 | 50 | 1009.5 |
| 20260505013151 | 60 | 28 | 2.0 | 2.0 | 0.00 | 0.00 | 0.00 | 50 | 1009.4 |
| 20260505012649 | 60 | 48 | 2.0 | 2.0 | 0.00 | 0.00 | 0.00 | 50 | 1009.5 |
| 20260505012146 | 61 | 57 | 2.0 | 3.0 | 0.00 | 0.00 | 0.00 | 49 | 1009.4 |
| 20260505011642 | 61 | 41 | 3.0 | 3.0 | 0.00 | 0.00 | 0.00 | 48 | 1009.3 |
| 20260505011139 | 61 | 43 | 2.0 | 3.0 | 0.00 | 0.00 | 0.00 | 48 | 1009.2 |
| 20260505010639 | 62 | 40 | 3.0 | 3.0 | 0.00 | 0.00 | 0.00 | 47 | 1009.1 |
| 20260505010137 | 62 | 44 | 2.0 | 3.0 | 0.00 | 0.00 | 0.00 | 46 | 1009.2 |
| 20260505005632 | 62 | 28 | 2.0 | 2.0 | 0.00 | 0.00 | 0.00 | 46 | 1009.1 |
| 20260505005130 | 63 | 17 | 2.0 | 3.0 | 0.00 | 0.00 | 0.00 | 46 | 1009.0 |
| 20260505004627 | 63 | 17 | 2.0 | 3.0 | 0.00 | 0.00 | 0.00 | 45 | 1008.9 |
| 20260505004123 | 63 | 27 | 2.0 | 3.0 | 0.00 | 0.00 | 0.00 | 44 | 1009.0 |
| 20260505003621 | 64 | 50 | 2.0 | 2.0 | 0.00 | 0.00 | 0.00 | 43 | 1008.9 |
| 20260505003118 | 65 | 39 | 2.0 | 2.0 | 0.00 | 0.00 | 0.00 | 41 | 1008.7 |
| 20260505002614 | 66 | 5 | 0.0 | 1.0 | 0.00 | 0.00 | 0.00 | 40 | 1008.9 |
| 20260505002112 | 66 | 8 | 1.0 | 2.0 | 0.00 | 0.00 | 0.00 | 40 | 1008.8 |
| 20260505001609 | 66 | 296 | 0.0 | 2.0 | 0.00 | 0.00 | 0.00 | 39 | 1008.7 |
| 20260505001107 | 67 | 44 | 1.0 | 2.0 | 0.00 | 0.00 | 0.00 | 39 | 1008.7 |
| 20260505000603 | 67 | 17 | 0.0 | 2.0 | 0.00 | 0.00 | 0.00 | 38 | 1008.8 |
| 20260504235558 | 68 | 25 | 0.0 | 4.0 | 0.00 | 0.00 | 0.00 | 37 | 1008.8 |
| 20260504235054 | 68 | 80 | 2.0 | 2.0 | 0.00 | 0.00 | 0.00 | 37 | 1008.6 |
| 20260504234551 | 68 | 58 | 2.0 | 2.0 | 0.00 | 0.00 | 0.00 | 37 | 1008.5 |
| 20260504234049 | 68 | 226 | 1.0 | 2.0 | 0.00 | 0.00 | 0.00 | 37 | 1008.7 |
| 20260504233544 | 69 | 266 | 0.0 | 4.0 | 0.00 | 0.00 | 0.00 | 36 | 1008.5 |
| 20260504233041 | 69 | 273 | 1.0 | 6.0 | 0.00 | 0.00 | 0.00 | 35 | 1008.5 |
| 20260504232538 | 69 | 229 | 4.0 | 13.0 | 0.00 | 0.00 | 0.00 | 35 | 1008.5 |
| 20260504232036 | 69 | 114 | 1.0 | 4.0 | 0.00 | 0.00 | 0.00 | 36 | 1008.4 |
| 20260504231532 | 69 | 249 | 1.0 | 6.0 | 0.00 | 0.00 | 0.00 | 35 | 1008.4 |
| 20260504231028 | 69 | 309 | 2.0 | 4.0 | 0.00 | 0.00 | 0.00 | 35 | 1008.4 |
| 20260504230524 | 70 | 63 | 1.0 | 8.0 | 0.00 | 0.00 | 0.00 | 34 | 1008.3 |
| 20260504230024 | 70 | 174 | 2.0 | 5.0 | 0.00 | 0.00 | 0.00 | 34 | 1008.5 |
| 20260504225520 | 70 | 236 | 3.0 | 8.0 | 0.00 | 0.00 | 0.00 | 34 | 1008.4 |
| 20260504225017 | 70 | 32 | 1.0 | 4.0 | 0.00 | 0.00 | 0.00 | 35 | 1008.2 |
| 20260504224514 | 71 | 240 | 4.0 | 5.0 | 0.00 | 0.00 | 0.00 | 35 | 1008.2 |
| 20260504224011 | 71 | 224 | 4.0 | 7.0 | 0.00 | 0.00 | 0.00 | 34 | 1008.4 |
| 20260504223507 | 71 | 244 | 3.0 | 4.0 | 0.00 | 0.00 | 0.00 | 34 | 1008.2 |
| 20260504223003 | 71 | 206 | 2.0 | 11.0 | 0.00 | 0.00 | 0.00 | 34 | 1008.0 |
| 20260504222500 | 71 | 181 | 2.0 | 4.0 | 0.00 | 0.00 | 0.00 | 34 | 1008.3 |
| 20260504221958 | 71 | 28 | 0.0 | 3.0 | 0.00 | 0.00 | 0.00 | 35 | 1008.2 |
| 20260504221455 | 71 | 217 | 2.0 | 3.0 | 0.00 | 0.00 | 0.00 | 35 | 1008.5 |
| 20260504220952 | 71 | 94 | 2.0 | 6.0 | 0.00 | 0.00 | 0.00 | 34 | 1008.3 |
| 20260504220448 | 71 | 269 | 2.0 | 4.0 | 0.00 | 0.00 | 0.00 | 34 | 1008.5 |
| 20260504215945 | 71 | 107 | 0.0 | 5.0 | 0.00 | 0.00 | 0.00 | 34 | 1008.4 |
| 20260504215442 | 72 | 63 | 2.0 | 4.0 | 0.00 | 0.00 | 0.00 | 35 | 1008.4 |
| 20260504214939 | 72 | 225 | 2.0 | 4.0 | 0.00 | 0.00 | 0.00 | 35 | 1008.3 |
| 20260504214435 | 72 | 244 | 3.0 | 5.0 | 0.00 | 0.00 | 0.00 | 33 | 1008.3 |
| 20260504213932 | 72 | 31 | 0.0 | 8.0 | 0.00 | 0.00 | 0.00 | 34 | 1008.2 |
| 20260504213427 | 72 | 285 | 3.0 | 6.0 | 0.00 | 0.00 | 0.00 | 33 | 1008.2 |
| 20260504212925 | 73 | 254 | 6.0 | 6.0 | 0.00 | 0.00 | 0.00 | 33 | 1008.3 |
| 20260504212421 | 73 | 268 | 2.0 | 3.0 | 0.00 | 0.00 | 0.00 | 34 | 1008.4 |
| 20260504211919 | 73 | 249 | 2.0 | 5.0 | 0.00 | 0.00 | 0.00 | 34 | 1008.2 |
| 20260504211415 | 73 | 274 | 4.0 | 9.0 | 0.00 | 0.00 | 0.00 | 31 | 1008.2 |
| 20260504210912 | 74 | 297 | 5.0 | 5.0 | 0.00 | 0.00 | 0.00 | 31 | 1008.4 |
| 20260504210409 | 73 | 253 | 3.0 | 4.0 | 0.00 | 0.00 | 0.00 | 32 | 1008.3 |
| 20260504205906 | 73 | 206 | 6.0 | 6.0 | 0.00 | 0.00 | 0.00 | 31 | 1008.5 |
| 20260504205404 | 72 | 38 | 2.0 | 4.0 | 0.00 | 0.00 | 0.00 | 33 | 1008.4 |
| 20260504204902 | 72 | 103 | 5.0 | 5.0 | 0.00 | 0.00 | 0.00 | 31 | 1008.4 |
| 20260504204400 | 73 | 259 | 4.0 | 7.0 | 0.00 | 0.00 | 0.00 | 31 | 1008.6 |
| 20260504203900 | 73 | 239 | 5.0 | 6.0 | 0.00 | 0.00 | 0.00 | 30 | 1008.6 |
| 20260504203356 | 72 | 278 | 4.0 | 8.0 | 0.00 | 0.00 | 0.00 | 31 | 1008.6 |
| 20260504202852 | 71 | 99 | 2.0 | 6.0 | 0.00 | 0.00 | 0.00 | 32 | 1008.6 |
| 20260504202349 | 71 | 292 | 3.0 | 4.0 | 0.00 | 0.00 | 0.00 | 33 | 1008.7 |
| 20260504201845 | 71 | 250 | 6.0 | 6.0 | 0.00 | 0.00 | 0.00 | 33 | 1008.8 |
| 20260504201343 | 71 | 239 | 5.0 | 6.0 | 0.00 | 0.00 | 0.00 | 32 | 1008.6 |
| 20260504200840 | 71 | 246 | 5.0 | 8.0 | 0.00 | 0.00 | 0.00 | 32 | 1008.7 |
| 20260504200337 | 72 | 234 | 3.0 | 9.0 | 0.00 | 0.00 | 0.00 | 31 | 1008.9 |
| 20260504195833 | 73 | 247 | 2.0 | 6.0 | 0.00 | 0.00 | 0.00 | 32 | 1008.8 |
| 20260504195329 | 73 | 279 | 2.0 | 5.0 | 0.00 | 0.00 | 0.00 | 33 | 1008.8 |
| 20260504194826 | 72 | 229 | 2.0 | 8.0 | 0.00 | 0.00 | 0.00 | 32 | 1008.8 |
| 20260504194322 | 72 | 236 | 4.0 | 8.0 | 0.00 | 0.00 | 0.00 | 31 | 1008.9 |
| 20260504193818 | 73 | 82 | 3.0 | 5.0 | 0.00 | 0.00 | 0.00 | 34 | 1009.1 |
| 20260504193316 | 73 | 175 | 2.0 | 5.0 | 0.00 | 0.00 | 0.00 | 32 | 1009.0 |
| 20260504192814 | 73 | 277 | 4.0 | 12.0 | 0.00 | 0.00 | 0.00 | 30 | 1009.0 |
| 20260504192312 | 72 | 84 | 3.0 | 8.0 | 0.00 | 0.00 | 0.00 | 33 | 1009.2 |
| 20260504191810 | 72 | 304 | 2.0 | 8.0 | 0.00 | 0.00 | 0.00 | 32 | 1009.1 |
| 20260504191307 | 73 | 215 | 4.0 | 6.0 | 0.00 | 0.00 | 0.00 | 32 | 1009.0 |
| 20260504190802 | 73 | 60 | 2.0 | 3.0 | 0.00 | 0.00 | 0.00 | 32 | 1009.1 |
| 20260504190259 | 73 | 28 | 2.0 | 5.0 | 0.00 | 0.00 | 0.00 | 32 | 1009.4 |
| 20260504185755 | 73 | 236 | 6.0 | 10.0 | 0.00 | 0.00 | 0.00 | 30 | 1009.4 |
| 20260504185252 | 72 | 224 | 4.0 | 7.0 | 0.00 | 0.00 | 0.00 | 31 | 1009.6 |
| 20260504184748 | 72 | 283 | 4.0 | 6.0 | 0.00 | 0.00 | 0.00 | 31 | 1009.4 |
| 20260504184244 | 72 | 359 | 0.0 | 7.0 | 0.00 | 0.00 | 0.00 | 31 | 1009.5 |
| 20260504183740 | 71 | 253 | 5.0 | 7.0 | 0.00 | 0.00 | 0.00 | 31 | 1009.6 |
| 20260504183237 | 72 | 279 | 4.0 | 9.0 | 0.00 | 0.00 | 0.00 | 30 | 1009.8 |
| 20260504182735 | 72 | 35 | 3.0 | 6.0 | 0.00 | 0.00 | 0.00 | 32 | 1009.7 |
| 20260504182232 | 72 | 297 | 4.0 | 7.0 | 0.00 | 0.00 | 0.00 | 30 | 1009.7 |
| 20260504181730 | 71 | 73 | 3.0 | 5.0 | 0.00 | 0.00 | 0.00 | 32 | 1010.0 |
| 20260504181227 | 71 | 249 | 5.0 | 9.0 | 0.00 | 0.00 | 0.00 | 30 | 1010.1 |
| 20260504180726 | 71 | 273 | 2.0 | 6.0 | 0.00 | 0.00 | 0.00 | 33 | 1010.0 |
| 20260504180224 | 71 | 272 | 4.0 | 7.0 | 0.00 | 0.00 | 0.00 | 31 | 1010.2 |
| 20260504175722 | 71 | 256 | 3.0 | 8.0 | 0.00 | 0.00 | 0.00 | 31 | 1010.3 |
| 20260504175218 | 71 | 269 | 3.0 | 10.0 | 0.00 | 0.00 | 0.00 | 31 | 1010.3 |
| 20260504174716 | 70 | 282 | 3.0 | 8.0 | 0.00 | 0.00 | 0.00 | 32 | 1010.3 |
| 20260504174214 | 70 | 92 | 2.0 | 10.0 | 0.00 | 0.00 | 0.00 | 32 | 1010.5 |
| 20260504173710 | 70 | 254 | 2.0 | 13.0 | 0.00 | 0.00 | 0.00 | 30 | 1010.5 |
| 20260504173207 | 70 | 247 | 3.0 | 8.0 | 0.00 | 0.00 | 0.00 | 32 | 1010.6 |
| 20260504172704 | 71 | 256 | 6.0 | 9.0 | 0.00 | 0.00 | 0.00 | 32 | 1010.8 |
| 20260504172200 | 71 | 226 | 10.0 | 11.0 | 0.00 | 0.00 | 0.00 | 30 | 1010.6 |
| 20260504171657 | 70 | 353 | 2.0 | 9.0 | 0.00 | 0.00 | 0.00 | 34 | 1010.8 |